DECAYED

DMSP 5D-2 F14 DEB, 62936 (Decayed)

Orbit data source: Space-Track

DMSP 5D-2 F14 DEB, 62936 was space debris in SSO originally from a launch on Fri, 04 Apr 1997 UTC launched from the Air Force Western Test Range (AFWTR). Debris objects in space refer to the collection of defunct objects orbiting the Earth. Examples of debris include non-operational satellites, rocket bodies, and fragments generated from explosions, collisions, or faulty payload assembly.

Not visible in the next 10 days
Identifier
62936, 1997-012G
Orbit
Decayed
Country
Flag of USUS
Related business
Manufacturer
LMT/EW
Mission
Decayed spacecraft
Bus & Motor
Unknown
Mass
Unknown
Launch date (UTC)
1997-04-04 (29 years ago)
Launch vehicle
Unknown
Launch site
Air Force Western Test Range (AFWTR)
Object type
Payload
Rocket body
Debris
Shape & HBR
Unknown shape, 0.2 m
Radar Cross Section
Medium (>0.1 m² and <1 m²)

Expand to show TLE details & history
Last TLE update: 3 months ago

TLE from 3 months ago
0 DMSP 5D-2 F14 DEB
1 62936U 97012G   26077.96853032  .09069630  00000-0  75004-1 0  9993
2 62936  99.1975 163.4638 0027684 259.7435 100.0696 15.64661432 65675
Epoch: 2026-03-18T23:14Z
TLE epoch observation values (Epoch: 2026-03-18T23:14:41.019Z)
Latitude
-0.00009°
Longitude
-1.73179°
Altitude
380.624 km
Speed
7.68 km/s
True Right ascension
10h 53m 51s
True Declination
0° 00' 00"
Sunlit
Object was in full shadow at epoch
Visualization orbit readout
Latitude
Unknown
Longitude
Unknown
Altitude
Unknown
Speed
Unknown
Apparent Right ascension
Unknown
Apparent Declination
Unknown
Sunlit
N/A
Visualization observer readout
Local Sidereal Time
07:16:20
Azimuth
Unknown
Elevation
Unknown
Doppler factor
Unknown
Orbital elements
Apogee altitude
389.891 km
Perigee altitude
352.522 km
Semi-major axis
6,749.344 km
Eccentricity
0.00277
Inclination
99.1975°
RAAN
163.4638°
Arg. of periapsis
259.7435°
True anomaly
100.38176°
Mean anomaly
100.0696°
Eccentric anomaly
100.2257°
Mean motion
3.91427 °/min
Orbital period
91.97 mins
BSTAR
0.075004
Loading maneuver chart data...
Computing Atmospheric mass density...

Documentation

Showing up to 5 results
|